Tracking 30995 objects as of 7-Jul-2025
HD Live streaming from Space Station
objects crossing your sky now

ARIANE 42P DEB

Track ARIANE 42P DEB now!
10-day predictions


NORAD ID: 44508
Int'l Code: 1992-052F
Perigee: 1,099.4 km
Apogee: 1,663.3 km
Inclination: 66.0 °
Period: 113.2 minutes
Semi major axis: 7752 km
RCS: Unknown
Launch date: August 10, 1992
Source: France (FR)
Launch site: FRENCH GUIANA (FRGUI)

Note: This is SATELLITE DEBRIS
Your satellite tracking list
NOAA 16 DEB
Track 1 satellite(s)




NASA's NSSDC Master Catalog

Two Line Element Set (TLE):
1 44508U 92052F   25187.50498691 -.00000476  00000-0 -15660-2 0  9993
2 44508  66.0326   7.2921 0363723  80.2617 283.9265 12.71898965 59189
Source of the keplerian elements: AFSPC